Location: Kott?ru
(16.6209°N, 80.6208°E)
Time: 23:37:47
(UTC+00:00)

XW-2C - Pass Details

Date: 28 April 2024
Orbit: 437 x 450 km, 97.5° (Epoch: 19 May)

Event Time Altitude Azimuth Distance (km) Brightness Sun altitude
Rises 13:48:09 0° 206° (SSW) 2,464 ? -12.7°
Reaches altitude 10° 13:51:20 10° 240° (WSW) 1,587 ? -13.4°
Maximum altitude 13:52:37 12° 262° (W) 1,481 ? -13.7°
Drops below altitude 10° 13:53:54 10° 284° (WNW) 1,584 ? -14.0°
Sets 13:57:05 0° 318° (NW) 2,451 ? -14.7°
